Miscellaneous Local Product
Issued by NWS Hastings, NE

Home | Current Version | Previous Version | Graphics & Text | Print | Product List | Glossary On
Versions: 1 2 3 4 5 6 7 8 9 10 11 12 13 14 15 16 17 18 19 20 21 22 23 24 25 26 27 28 29 30 31 32 33 34 35 36 37 38 39 40 41 42 43 44 45 46 47 48 49 50
000
AXUS43 KGID 171602
MISGRI

GID CWA HOURLY WEATHER ROUNDUP
NATIONAL WEATHER SERVICE HASTINGS NE
1100 AM CDT WED SEP 17 2014

NOTE: "FAIR" INDICATES FEW OR NO CLOUDS BELOW 12,000 FEET WITH NO
SIGNIFICANT WEATHER AND/OR OBSTRUCTIONS TO VISIBILITY.

...SOUTH CENTRAL NEBRASKA...

CITY           SKY/WX    TMP DP  RH WIND       PRES   REMARKS
GRAND ISLAND   SUNNY     67  55  65 N5        29.94F
HASTINGS       SUNNY     68  56  65 NE7       29.94R
KEARNEY        SUNNY     64  57  77 NE5       29.94F
ORD            SUNNY     66  58  75 CALM      29.93S
YORK           SUNNY     64  59  82 E3        29.94S
AURORA         SUNNY     65  56  72 CALM      29.94S
LEXINGTON      SUNNY     64  60  88 CALM      29.94S
HOLDREGE       SUNNY     65  58  79 CALM      29.94R
HEBRON         CLOUDY    64  62  92 CALM      29.93S FOG

...NEBRASKA PANHANDLE...

CITY           SKY/WX    TMP DP  RH WIND       PRES   REMARKS
CHADRON        SUNNY     70  50  49 NW6       30.00R
ALLIANCE       SUNNY     71  49  45 VRB3      29.99S
SCOTTSBLUFF    SUNNY     70  48  45 NW13      30.02R
SIDNEY         SUNNY     74  43  32 NW9       30.02F

...WESTERN AND NORTH CENTRAL NEBRASKA...

CITY           SKY/WX    TMP DP  RH WIND       PRES   REMARKS
VALENTINE      SUNNY     71  57  61 SE3       29.94S
AINSWORTH      SUNNY     69  59  71 E6        29.95R
ONEILL         SUNNY     66  61  84 CALM      29.95R
BROKEN BOW     MOSUNNY   77  62  59 NE6       29.93S
IMPERIAL       SUNNY     73  55  53 N3        29.98R
NORTH PLATTE   CLOUDY    59  58  96 W6        29.96R FOG
MCCOOK         MOSUNNY   57  56  96 SW6       29.96S FOG

...EASTERN NEBRASKA...

CITY           SKY/WX    TMP DP  RH WIND       PRES   REMARKS
NORFOLK        NOT AVBL
SO SIOUX CITY  SUNNY     68  56  65 CALM      29.94R
TEKAMAH        SUNNY     69  57  65 CALM      29.94S
ALBION         SUNNY     65  56  72 CALM      29.94S
OMAHA EPPLEY   MOSUNNY   68  58  70 SE3       29.94R
OFFUTT AFB     SUNNY     69  65  86 E5        29.94R
MILLARD        SUNNY     68  60  74 SE3       29.94S
LINCOLN        PTSUNNY   65  60  84 VRB3      29.95S
NEBRASKA CITY  CLOUDY    64  57  77 SE5       29.95S
BEATRICE       CLOUDY    65  63  91 CALM      29.94S
FALLS CITY     CLOUDY    65  63  93 E3        29.94S FOG

...NORTHERN KANSAS...

CITY           SKY/WX    TMP DP  RH WIND       PRES   REMARKS
GOODLAND       SUNNY     76  52  43 E5        30.00S
HILL CITY      SUNNY     68  59  73 CALM      29.95S
PHILLIPSBURG   SUNNY     68  57  68 E5        29.93F
SMITH CENTER   SUNNY     66  61  82 NE3       29.94R
BELOIT         CLOUDY    64  64 100 NE5       29.92R
HAYS           SUNNY     72  61  68 N8        29.94R
RUSSELL        SUNNY     74  63  68 NE7       29.91R
CONCORDIA      CLOUDY    68  66  94 E7        29.93R
SALINA         SUNNY     77  67  71 NE6       29.91S
TOPEKA         CLOUDY    69  68  96 E3        29.93S FOG



USA.gov is the U.S. government's official web portal to all federal, state and local government web resources and services.